Regional Weather Roundup
Issued by NWS

Home | Current Version | Previous Version | Text Only | Print | Product List | Glossary On
Versions: 1 2 3 4 5 6 7 8 9 10 11 12 13 14 15 16 17 18 19 20 21 22 23 24 25 26 27 28 29 30 31 32 33 34 35 36 37 38 39 40 41 42 43 44 45 46 47 48 49 50
000
ASCA44 KEWX 282020
RWRMX

LATIN AMERICA AND CARIBBEAN REGIONAL WEATHER ROUNDUP
NATIONAL WEATHER SERVICE AUSTIN/SAN ANTONIO TX
300 PM CDT WED JUN 28 2017

NOTE: "FAIR" INDICATED FEW OR NO CLOUDS BELOW 12,000 FEET WITH NO
SIGNIFICANT WEATHER AND/OR OBSTRUCTIONS TO VISIBILITY.

BAJA CALIFORNIA

CITY           SKY/WX    TMP DP  RH WIND       PRES   REMARKS
LORETO         MOSUNNY   93  77  59 CALM      29.82F HX 107
MEXICALI       SUNNY    100  36  10 NW3       29.72F HX  95
S.J. DEL CABO  SUNNY     88  64  45 SE16      29.89F
TIJUANA        SUNNY     73  57  56 W10       29.93R

NORTHWESTERN MEXICO

CITY           SKY/WX    TMP DP  RH WIND       PRES   REMARKS
CULIACAN       CLOUDY    91  75  59 SW13      29.87F HX 102
DURANGO        PTSUNNY   82  43  24 W8        30.15F
GUAYMAS        MOSUNNY   95  77  55 S17       29.80F HX 109
HERMOSILLO     SUNNY    102  64  29 SW12      29.86F HX 105
CD. JUAREZ     MOSUNNY   97  28   9 W17       29.97F HX  91
LOS MOCHIS     MOSUNNY   90  68  48 S18       29.90  HX  93
OBREGON        MOSUNNY   97  61  30 S9        29.84F HX  97

NORTHEASTERN MEXICO

CITY           SKY/WX    TMP DP  RH WIND       PRES   REMARKS
CHIHUAHUA      MOSUNNY   97  48  19 N18       30.02F HX  93
MATAMOROS      TSTM      79  75  89 CALM      29.86R
MONTERREY      MOSUNNY   91  64  40 NE9       29.86F HX  93
NUEVO LAREDO   PTSUNNY   91  68  46 CALM      29.85F HX  95
PIEDRAS NEGRAS MOSUNNY   90  68  48 SE6       29.89F HX  93
REYNOSA        PTSUNNY   91  64  40 CALM      29.82F HX  93
SALTILLO       MOSUNNY   84  64  51 N12       30.09F
TORREON        MOSUNNY   95  55  26 NW13      29.97F HX  93
CD. VICTORIA   MOSUNNY   95  61  31 SE12      29.83F HX  95

WESTERN MEXICO

CITY           SKY/WX    TMP DP  RH WIND       PRES   REMARKS
AGUASCALIENTES MOSUNNY   75  54  46 SW3       30.20F
COLIMA         PTSUNNY   82  72  69 SW9       30.01F
DEL BAJIO      PTSUNNY   73  61  64 W9        30.25F
GUADALAJARA    TSTM      68  59  73 SW8       30.18S
MANZANILLO       N/A    N/A N/A N/A MISG        N/A
MAZATLAN       PTSUNNY   88  73  62 SW9       29.88F HX  96
P. VALLARTA    PTSUNNY   84  77  79 SW8       29.87F HX  94
URUAPAN        CLOUDY    68  63  83 SE7       30.18F
ZACATECAS        N/A    N/A N/A N/A MISG        N/A

CENTRAL MEXICO

CITY           SKY/WX    TMP DP  RH WIND       PRES   REMARKS
CUERNAVACA     PTSUNNY   77  66  69 E6        30.10
MEXICO CITY    PTSUNNY   73  52  46 E8        30.24F
MORELIA        PTSUNNY   68  59  73 SE5       30.20F
PUEBLA         PTSUNNY   70  55  60 S14       30.27F
QUERETARO      PTSUNNY   77  55  47 W16       30.21F
S. LUIS POTOSI PTSUNNY   75  54  46 E3        30.17F
TAMPICO        PTSUNNY   91  73  55 E18       29.83F HX 100
TOLUCA         PTSUNNY   68  52  56 SE8       30.32F

SOUTHERN MEXICO

CITY           SKY/WX    TMP DP  RH WIND       PRES   REMARKS
ACAPULCO       PTSUNNY   84  75  74 SW10      29.87F HX  92
B. DE HUATULCO PTSUNNY  N/A N/A N/A S12       29.93F
OAXACA         PTSUNNY   81  57  44 E6        30.13F
P. ESCONDIDO   MOSUNNY   82  75  78 S9        29.96F
VERACRUZ       PTSUNNY   90  77  66 E7        29.83F HX 102
ZIHUATANEJO    PTSUNNY   90  77  66 SW12      29.89  HX 102

YUCATAN PENINSULA

CITY           SKY/WX    TMP DP  RH WIND       PRES   REMARKS
CAMPECHE       MOSUNNY   93  75  55 E12       29.84F HX 104
CANCUN         MOSUNNY   88  77  70 SE14      29.96S HX 100
CHETUMAL       MOSUNNY   88  77  70 SE16      29.89F HX 100
CD. DEL CARMEN MOSUNNY  N/A N/A N/A E16       29.86F
COZUMEL        PTSUNNY   88  77  70 S7G18     29.94F HX 100
MERIDA         PTSUNNY   95  72  46 NE12      29.89F HX 103
MINATITLAN     MOSUNNY   91  79  66 CALM      29.82F HX 107
TAPACHULA      MOSUNNY   88  75  66 W7        29.84F HX  97
TUX. GUTIERREZ MOSUNNY   84  66  54 CALM      29.90F
VILLAHERMOSA   PTSUNNY   90  75  62 CALM      29.86F HX 100

CENTRAL AMERICA

CITY           SKY/WX    TMP DP  RH WIND       PRES   REMARKS
BELIZE CITY    PTSUNNY   86  79  79 SE8       29.87F HX  99
MANAGUA        PTCLDY    91  75  59 NE7       29.80S HX 102

CARIBBEAN

CITY           SKY/WX    TMP DP  RH WIND       PRES   REMARKS
ARUBA          MOSUNNY   88  77  70 E20G33    29.86F HX 100
CURACAO        MOSUNNY   88  73  62 E12       29.92S HX  96
KINGSTON       MOSUNNY   88  75  66 SE23      29.92S HX  97
NASSAU         MOSUNNY   90  75  62 N8        30.04R HX 100
SAN JUAN       MOSUNNY   86  75  70 E18       29.97F HX  95
SANTO DOMINGO  MOSUNNY   86  75  70 S7        29.94S HX  95
ST. CROIX      MOSUNNY   88  73  62 E17       29.97S HX  96
ST. KITTS      MOSUNNY   86  75  70 NE18      29.97S HX  95
ST. MAARTEN    MOSUNNY   86  75  70 E14       29.97S HX  95
ST. THOMAS     MOSUNNY   90  73  58 E15G21    29.96F HX  98

$$




USA.gov is the U.S. government's official web portal to all federal, state and local government web resources and services.